DW8052 Weather Reports


time (UTC)temp
F
wind
direction
speed
knots
gust
knots
rain 1hr
in
rain 24hr
in
rain mn
in
humidity
%
barometer
mb
20260831024717 68 71 8.7 10.4 0.00 0.01 0.01 61 1029.7
20260831024217 67 74 7.8 10.4 0.00 0.01 0.01 63 1029.6
20260831023716 67 72 5.2 8.7 0.00 0.01 0.01 64 1029.8
20260831023216 66 70 7.8 10.4 0.00 0.01 0.01 63 1029.9
20260831022716 67 62 8.7 10.4 0.00 0.01 0.01 61 1029.9
20260831022217 69 69 6.1 8.7 0.00 0.01 0.01 59 1030.0
20260831021716 68 84 5.2 7.0 0.00 0.01 0.01 60 1030.1
20260831021216 67 79 6.1 7.8 0.00 0.01 0.01 55 1030.3
20260831020717 66 84 6.1 7.8 0.00 0.01 0.01 50 1030.3
20260831015717 66 60 7.8 8.7 0.00 0.01 0.01 52 1030.5
20260831015216 65 56 7.0 8.7 0.00 0.01 0.01 52 1030.6
20260831014716 66 53 7.0 10.4 0.00 0.01 0.01 54 1030.8
20260831014216 66 49 7.0 7.8 0.00 0.01 0.01 54 1030.7
20260831013716 66 43 3.5 6.1 0.00 0.01 0.01 56 1030.8
20260831011216 67 72 0.9 4.3 0.00 0.01 0.01 55 1031.1
20260831010216 66 310 0.9 4.3 0.00 0.01 0.01 55 1031.5
20260831005716 66 2 5.2 7.8 0.00 0.01 0.01 54 1031.5
20260831005216 66 352 2.6 7.0 0.00 0.01 0.01 55 1031.5
20260831004216 64 321 6.1 8.7 0.00 0.01 0.01 55 1031.5
20260831003716 64 338 5.2 7.8 0.00 0.01 0.01 59 1031.6
20260831003217 63 344 7.8 10.4 0.00 0.01 0.01 59 1031.4
20260831002716 63 343 7.0 10.4 0.00 0.01 0.01 61 1031.5
20260831002216 63 348 4.3 10.4 0.00 0.01 0.01 63 1031.5
20260831001716 62 355 6.1 11.3 0.00 0.01 0.01 64 1031.6
20260831001216 62 351 9.6 11.3 0.00 0.01 0.01 63 1031.6
20260831000218 62 334 6.1 10.4 0.00 0.01 0.01 66 1031.5
20260830235717 62 344 5.2 10.4 0.00 0.01 0.01 66 1031.5
20260830235216 61 349 5.2 10.4 0.00 0.01 0.01 67 1031.4
20260830234716 61 353 6.1 8.7 0.00 0.01 0.01 66 1031.5
20260830234216 61 353 6.1 7.8 0.00 0.01 0.01 66 1031.4
20260830233716 61 334 5.2 7.8 0.00 0.01 0.01 67 1031.6
20260830233216 61 346 5.2 7.8 0.00 0.01 0.01 67 1031.5
20260830232716 61 341 5.2 7.8 0.00 0.01 0.01 67 1031.6
20260830232216 61 334 5.2 7.8 0.00 0.01 0.01 69 1031.5
20260830231716 60 353 4.3 7.0 0.00 0.01 0.01 68 1031.6
20260830231217 60 341 4.3 7.0 0.00 0.01 0.01 69 1031.5
20260830230716 60 339 4.3 6.1 0.00 0.01 0.01 70 1031.6
20260830230216 60 327 2.6 4.3 0.00 0.01 0.01 71 1031.6
20260830225716 59 339 2.6 5.2 0.00 0.01 0.01 72 1031.8
20260830225216 58 338 3.5 5.2 0.00 0.01 0.01 73 1031.6
20260830224716 58 341 4.3 6.1 0.00 0.01 0.01 72 1031.5
20260830224216 58 340 4.3 6.1 0.00 0.01 0.01 73 1031.4
20260830223716 58 330 4.3 6.1 0.00 0.01 0.01 74 1031.4
20260830223216 58 342 2.6 5.2 0.00 0.01 0.01 74 1031.6
20260830222216 58 342 2.6 4.3 0.00 0.01 0.01 76 1031.4
20260830221716 58 336 2.6 4.3 0.00 0.01 0.01 77 1031.7
20260830220216 57 333 0.0 2.6 0.00 0.01 0.01 81 1031.5
20260830215716 57 333 0.9 4.3 0.00 0.01 0.01 82 1031.3
20260830215216 56 333 2.6 5.2 0.00 0.01 0.01 83 1031.4
20260830214216 55 329 1.7 4.3 0.00 0.01 0.01 87 1031.1
20260830213716 55 332 4.3 5.2 0.00 0.01 0.01 87 1031.2
20260830213215 54 332 5.2 6.1 0.00 0.01 0.01 88 1031.1
20260830212716 54 330 5.2 7.0 0.00 0.01 0.01 89 1030.9
20260830212216 53 330 4.3 6.1 0.00 0.01 0.01 89 1030.9
20260830211715 53 334 4.3 6.1 0.00 0.01 0.01 90 1031.1
20260830211215 53 321 5.2 6.1 0.00 0.01 0.01 90 1030.9
20260830210715 53 318 5.2 6.1 0.00 0.01 0.01 90 1031.0
20260830210216 53 318 6.1 7.0 0.00 0.01 0.01 90 1030.8
20260830205216 52 326 6.1 7.0 0.00 0.01 0.01 91 1030.7
20260830204716 52 326 5.2 6.1 0.00 0.01 0.01 91 1030.6
20260830204216 52 322 5.2 7.0 0.00 0.01 0.01 90 1030.6
20260830203716 52 321 6.1 7.0 0.00 0.01 0.01 90 1030.5
20260830202715 52 307 6.1 7.0 0.00 0.01 0.01 90 1030.5
20260830202216 52 307 5.2 6.1 0.00 0.01 0.01 90 1030.3
20260830201715 52 307 5.2 6.1 0.01 0.01 0.01 90 1030.3
20260830201215 52 310 5.2 5.2 0.01 0.01 0.01 89 1030.4
20260830200715 52 296 5.2 5.2 0.01 0.01 0.01 89 1030.3
20260830200216 52 289 5.2 6.1 0.01 0.01 0.01 89 1030.3
20260830195716 53 287 4.3 5.2 0.01 0.01 0.01 89 1030.3
20260830195216 53 287 4.3 5.2 0.01 0.01 0.01 88 1030.1
20260830194716 53 274 5.2 6.1 0.01 0.01 0.01 89 1030.2
20260830193715 53 274 5.2 6.1 0.01 0.01 0.01 89 1030.0
20260830193216 54 273 6.1 7.0 0.01 0.01 0.01 88 1030.0
20260830192715 54 273 7.0 7.0 0.01 0.01 0.01 89 1029.9
20260830191215 53 282 6.1 7.0 0.00 0.00 0.00 88 1030.0
20260830190715 54 279 6.1 7.0 0.00 0.00 0.00 88 1029.9
20260830190215 54 279 6.1 7.0 0.00 0.00 0.00 88 1029.9
20260830185216 54 287 5.2 6.1 0.00 0.00 0.00 87 1029.9
20260830184215 54 284 6.1 7.0 0.00 0.00 0.00 87 1029.8
20260830183715 54 283 6.1 6.1 0.00 0.00 0.00 86 1029.8
20260830183215 54 279 5.2 6.1 0.00 0.00 0.00 86 1029.8
20260830182716 54 274 5.2 5.2 0.00 0.00 0.00 84 1029.8
20260830182216 54 274 4.3 5.2 0.00 0.00 0.00 84 1029.8
20260830181716 55 269 4.3 5.2 0.00 0.00 0.00 83 1029.8
20260830181215 55 269 4.3 4.3 0.00 0.00 0.00 82 1029.8
20260830180715 56 286 2.6 2.6 0.00 0.00 0.00 82 1029.7
20260830180215 57 286 1.7 2.6 0.00 0.00 0.00 82 1029.8
20260830175716 57 286 1.7 2.6 0.00 0.00 0.00 83 1029.7
20260830175215 57 281 1.7 2.6 0.00 0.00 0.00 82 1029.8
20260830174716 58 271 2.6 2.6 0.00 0.00 0.00 82 1029.9
20260830174216 58 247 0.0 0.0 0.00 0.00 0.00 82 1030.0
20260830173715 58 241 0.0 0.0 0.00 0.00 0.00 83 1030.0
20260830173216 58 227 0.0 0.0 0.00 0.00 0.00 82 1030.1
20260830172716 58 217 0.0 0.0 0.00 0.00 0.00 82 1030.1
20260830172215 58 217 0.9 4.3 0.00 0.00 0.00 83 1030.1
20260830171715 58 216 3.5 4.3 0.00 0.00 0.00 82 1030.0
20260830171215 58 217 2.6 2.6 0.00 0.00 0.00 83 1029.9
20260830170716 58 217 2.6 4.3 0.00 0.00 0.00 82 1030.0
20260830170215 58 222 4.3 5.2 0.00 0.00 0.00 82 1030.0
20260830165215 58 188 3.5 5.2 0.00 0.00 0.00 82 1030.1
20260830164715 58 197 1.7 4.3 0.00 0.00 0.00 82 1030.2
20260830164215 58 190 3.5 5.2 0.00 0.00 0.00 82 1030.1
20260830163715 58 199 4.3 5.2 0.00 0.00 0.00 82 1030.3
20260830163215 58 192 3.5 6.1 0.00 0.00 0.00 82 1030.3
20260830162715 58 189 5.2 6.1 0.00 0.00 0.00 82 1030.5
20260830162216 58 185 5.2 7.0 0.00 0.00 0.00 82 1030.7
20260830161215 58 193 6.1 7.8 0.00 0.00 0.00 82 1030.7
20260830160215 58 187 6.1 7.0 0.00 0.00 0.00 82 1030.6
20260830155715 58 190 6.1 8.7 0.00 0.00 0.00 82 1030.7
20260830155215 58 195 5.2 7.0 0.00 0.00 0.00 82 1030.7
20260830154715 58 192 5.2 6.1 0.00 0.00 0.00 82 1030.7
20260830153715 58 198 3.5 7.0 0.00 0.00 0.00 82 1030.7
20260830153215 58 192 5.2 7.0 0.00 0.00 0.00 82 1030.8
20260830152715 58 191 6.1 7.8 0.00 0.00 0.00 82 1030.8
20260830152215 58 188 6.1 7.8 0.00 0.00 0.00 82 1030.8
20260830151715 58 192 5.2 7.0 0.00 0.00 0.00 82 1030.7
20260830151215 58 190 6.1 7.0 0.00 0.00 0.00 82 1031.0
20260830150716 58 191 6.1 7.0 0.00 0.00 0.00 82 1031.0
20260830150215 58 186 5.2 6.1 0.00 0.00 0.00 82 1030.8
20260830145715 58 184 6.1 7.0 0.00 0.00 0.00 82 1030.9
20260830145215 58 188 6.1 7.8 0.00 0.00 0.00 82 1030.8
20260830144715 58 193 6.1 7.8 0.00 0.00 0.00 82 1031.1
20260830144215 58 191 6.1 7.8 0.00 0.00 0.00 82 1031.0
20260830143715 58 197 5.2 7.0 0.00 0.00 0.00 82 1030.9
20260830141715 59 184 4.3 7.0 0.00 0.00 0.00 82 1030.9
20260830141215 59 182 5.2 6.1 0.00 0.00 0.00 82 1031.0
20260830140716 59 179 5.2 7.0 0.00 0.00 0.00 82 1031.0
20260830140215 59 180 5.2 7.0 0.00 0.00 0.00 83 1030.8
20260830135716 59 179 6.1 7.0 0.00 0.00 0.00 82 1031.0
20260830135215 59 178 6.1 7.8 0.00 0.00 0.00 83 1030.8
20260830134715 59 177 6.1 7.8 0.00 0.00 0.00 82 1031.0
20260830134215 59 178 7.0 7.8 0.00 0.00 0.00 82 1030.9
20260830133715 59 180 7.0 8.7 0.00 0.00 0.00 82 1030.9
20260830132715 59 188 7.0 8.7 0.00 0.00 0.00 82 1031.0
20260830132215 59 184 7.0 8.7 0.00 0.00 0.00 82 1031.2
20260830131715 59 187 6.1 7.8 0.00 0.00 0.00 82 1031.1
20260830131215 59 186 6.1 7.0 0.00 0.00 0.00 81 1031.1
20260830130715 59 187 5.2 6.1 0.00 0.00 0.00 81 1031.1
20260830130215 59 191 5.2 6.1 0.00 0.00 0.00 81 1031.1
20260830125715 59 185 5.2 6.1 0.00 0.00 0.00 81 1031.1
20260830125214 59 194 4.3 7.0 0.00 0.00 0.00 81 1031.2
20260830124714 59 180 5.2 7.0 0.00 0.00 0.00 80 1031.2
20260830124215 59 184 5.2 7.0 0.00 0.00 0.00 81 1031.2
20260830123715 59 180 6.1 7.8 0.00 0.00 0.00 81 1031.3
20260830122215 59 173 5.2 6.1 0.00 0.00 0.00 80 1031.2
20260830121715 59 170 4.3 6.1 0.00 0.00 0.00 81 1031.3
20260830121216 59 152 5.2 6.1 0.00 0.00 0.00 81 1031.2
20260830120714 58 164 5.2 6.1 0.00 0.00 0.00 81 1031.5
20260830120215 58 182 5.2 7.0 0.00 0.00 0.00 80 1031.1
20260830115714 58 202 4.3 7.8 0.00 0.00 0.00 80 1031.1
20260830115215 58 241 4.3 7.8 0.00 0.00 0.00 80 1031.0
20260830114715 58 203 4.3 6.1 0.00 0.00 0.00 79 1031.1
20260830114214 58 246 4.3 5.2 0.00 0.00 0.00 79 1030.8
20260830113715 59 249 5.2 5.2 0.00 0.00 0.00 78 1030.8
20260830113215 59 266 3.5 4.3 0.00 0.00 0.00 78 1030.7
20260830112715 59 259 2.6 4.3 0.00 0.00 0.00 78 1030.6
20260830112215 59 256 2.6 4.3 0.00 0.00 0.00 78 1030.4
20260830111715 60 259 1.7 2.6 0.00 0.00 0.00 78 1030.4
20260830111215 59 259 1.7 2.6 0.00 0.00 0.00 79 1030.7
20260830110214 59 259 2.6 2.6 0.00 0.00 0.00 79 1030.4
20260830105714 59 247 1.7 2.6 0.00 0.00 0.00 79 1030.3
20260830104716 59 250 3.5 4.3 0.00 0.00 0.00 79 1030.7
20260830104214 59 246 2.6 2.6 0.00 0.00 0.00 79 1030.6
20260830102714 59 256 2.6 4.3 0.00 0.00 0.00 78 1030.3
20260830102214 59 256 2.6 4.3 0.00 0.00 0.00 78 1030.4
20260830101715 60 256 2.6 2.6 0.00 0.00 0.00 77 1030.2
20260830101215 60 265 2.6 2.6 0.00 0.00 0.00 77 1030.2
20260830100714 60 288 0.0 0.9 0.00 0.00 0.00 77 1030.2
20260830100214 60 288 0.9 2.6 0.00 0.00 0.00 76 1030.2
20260830095215 60 143 0.9 2.6 0.00 0.00 0.00 75 1030.2
20260830094714 61 79 0.0 1.7 0.00 0.00 0.00 75 1030.1
20260830094214 61 79 1.7 2.6 0.00 0.00 0.00 75 1030.3
20260830093715 61 79 1.7 2.6 0.00 0.00 0.00 75 1030.1
20260830093215 61 79 0.9 2.6 0.00 0.00 0.00 74 1030.0
20260830092714 61 79 1.7 2.6 0.00 0.00 0.00 74 1030.0
20260830092214 61 79 0.9 1.7 0.00 0.00 0.00 73 1030.3
20260830091715 61 79 0.0 0.9 0.00 0.00 0.00 73 1030.1
20260830091215 61 79 0.0 2.6 0.00 0.00 0.00 73 1029.8
20260830090714 61 78 1.7 4.3 0.00 0.00 0.00 73 1029.9
20260830090215 61 87 2.6 4.3 0.00 0.00 0.00 73 1029.8
20260830085714 61 84 2.6 4.3 0.00 0.00 0.00 72 1029.7
20260830085214 61 76 2.6 4.3 0.00 0.00 0.00 72 1029.8
20260830084714 61 98 2.6 4.3 0.00 0.00 0.00 72 1029.7
20260830084215 61 81 2.6 5.2 0.00 0.00 0.00 72 1029.8
20260830083714 61 92 2.6 4.3 0.00 0.00 0.00 72 1029.7
20260830083214 61 81 1.7 2.6 0.00 0.00 0.00 71 1029.5
20260830082714 61 82 2.6 2.6 0.00 0.00 0.00 72 1029.6
20260830082215 61 72 2.6 2.6 0.00 0.00 0.00 71 1029.4
20260830081714 61 74 2.6 2.6 0.00 0.00 0.00 71 1029.4
20260830081214 61 47 1.7 2.6 0.00 0.00 0.00 71 1029.5
20260830080714 61 35 2.6 2.6 0.00 0.00 0.00 70 1029.3
20260830080215 61 35 1.7 2.6 0.00 0.00 0.00 70 1029.3
20260830075214 61 40 2.6 4.3 0.00 0.00 0.00 69 1029.1
20260830073714 62 49 4.3 4.3 0.00 0.00 0.00 70 1029.3
20260830073214 62 47 2.6 6.1 0.00 0.00 0.00 70 1029.1
20260830072714 62 61 5.2 6.1 0.00 0.00 0.00 69 1029.3
20260830071715 63 76 4.3 6.1 0.00 0.00 0.00 69 1029.1
20260830071214 63 80 5.2 6.1 0.00 0.00 0.00 69 1029.1
20260830070714 62 65 5.2 7.0 0.00 0.00 0.00 68 1029.0
20260830070214 62 67 5.2 7.0 0.00 0.00 0.00 68 1029.1
20260830065714 62 55 5.2 6.1 0.00 0.00 0.00 68 1028.8
20260830065214 62 59 5.2 6.1 0.00 0.00 0.00 68 1028.9
20260830064213 62 56 4.3 5.2 0.00 0.00 0.00 67 1028.8
20260830063714 63 53 4.3 5.2 0.00 0.00 0.00 66 1028.9
20260830062715 63 66 4.3 5.2 0.00 0.00 0.00 64 1028.9
20260830062214 63 64 4.3 5.2 0.00 0.00 0.00 65 1028.8
20260830061714 63 65 4.3 5.2 0.00 0.00 0.00 66 1028.8
20260830060214 63 69 5.2 6.1 0.00 0.00 0.00 64 1028.9
20260830055714 64 69 5.2 7.0 0.00 0.00 0.00 62 1028.9
20260830055214 64 72 4.3 6.1 0.00 0.00 0.00 62 1029.0
20260830054214 65 77 6.1 7.8 0.00 0.00 0.00 60 1028.9
20260830053714 66 79 5.2 7.0 0.00 0.00 0.00 59 1029.0
20260830053214 66 80 4.3 7.0 0.00 0.00 0.00 58 1029.1
20260830052713 66 83 4.3 7.0 0.00 0.00 0.00 58 1029.1
20260830051714 66 84 3.5 6.1 0.00 0.00 0.00 60 1029.0
20260830051214 66 79 4.3 7.0 0.00 0.00 0.00 60 1029.4
20260830050714 65 81 3.5 5.2 0.00 0.00 0.00 60 1029.3
20260830050213 65 84 4.3 5.2 0.00 0.00 0.00 59 1029.4
20260830045214 65 95 4.3 5.2 0.00 0.00 0.00 61 1029.3
20260830044214 64 97 4.3 5.2 0.00 0.00 0.00 63 1029.5
20260830043714 64 96 4.3 6.1 0.00 0.00 0.00 63 1029.4
20260830042714 64 97 5.2 6.1 0.00 0.00 0.00 63 1029.4
20260830042213 65 105 5.2 6.1 0.00 0.00 0.00 62 1029.3
20260830041714 65 99 4.3 6.1 0.00 0.00 0.00 62 1029.5
20260830041214 65 104 5.2 6.1 0.00 0.00 0.00 63 1029.3
20260830040714 65 102 4.3 7.0 0.00 0.00 0.00 62 1029.4
20260830040214 65 90 4.3 6.1 0.00 0.00 0.00 62 1029.5
20260830035714 65 107 6.1 7.8 0.00 0.00 0.00 62 1029.5
20260830035214 65 109 6.1 7.0 0.00 0.00 0.00 63 1029.5
20260830034214 65 105 5.2 6.1 0.00 0.00 0.00 61 1029.5
20260830033714 65 112 5.2 7.0 0.00 0.00 0.00 61 1029.4
20260830033214 65 104 4.3 7.0 0.00 0.00 0.00 61 1029.7
20260830032214 65 113 6.1 7.8 0.00 0.00 0.00 60 1029.7
20260830031713 65 107 5.2 7.8 0.00 0.00 0.00 61 1029.7
20260830031213 65 96 5.2 7.0 0.00 0.00 0.00 60 1029.9
20260830030713 66 101 5.2 6.1 0.00 0.00 0.00 60 1029.8
20260830030214 66 111 5.2 7.0 0.00 0.00 0.00 60 1029.8
20260830025714 66 106 5.2 7.0 0.00 0.00 0.00 59 1029.8
20260830025214 66 107 5.2 6.1 0.00 0.00 0.00 59 1030.1